Content
SEND FEEDBACK

Daily
Averages
Monthly
Summary
United States of America

COLLEGEVILLE, MINNESOTA


Home > North America > United States > Minnesota
Elevation: 1184 feet     Latitude: 45 34N     Longitude: 094 24W

WEATHER
 
SELECT A DAY
Number of Records: 216,926;   Date Range: 1/1/95 - 12/27/14
 
SHARE

PRINT THIS DATA

[ ← Previous Day ]
WEATHER ALMANAC - JANUARY 31, 2013
[ Next Day → ]
[ °C ]   °F
Weather ElementAverageHighLow
Temperature-1.6 °F5 °F (12:20 am)-11 °F (11:53 pm)
Dewpoint-10.5 °F-2.2 °F (12:20 am)-20 °F (11:53 pm)
Humidity65.7 %72 % (12:20 am)59 % (5:53 pm)
Barometer30.09 in30.36 in (10:53 pm)29.75 in (12:20 am)
Wind Speed17.9 mph23 mph (1:53 pm)
Wind Gust27.6 mph (12:53 pm)
Weather ElementAverage
Visibility8.5 mi
Wind DirectionWNW (306.7 °)

Weather ElementTotal
Precipitation---
Heating Degree Days68 (Base 65)
Averaged from 30 records on January 31, 2013
WEATHER CONDITIONS BREAKOUT
WIND DIRECTION BREAKOUT
WEATHER BY HOUR - JANUARY 31, 2013
[ °C ]   °F
Local TimeTemperatureDewpointHumidityBarometerVisibilityWind DirectionWind SpeedGust SpeedPrecipitationEventsConditions
12:20 AM5.0 °F-2.2 °F72 %29.75 in5.0 miNW (310°)17.3 mph0.00 inSnowLight Snow
12:53 AM3.9 °F-4.0 °F70 %29.86 in10.0 miWNW (300°)16.1 mph0.00 inMostly Cloudy
1:53 AM3.0 °F-5.1 °F69 %29.88 in10.0 miWNW (300°)18.4 mphOvercast
2:53 AM3.0 °F-5.1 °F69 %29.89 in9.0 miNW (320°)17.3 mphOvercast
3:53 AM1.9 °F-6.0 °F69 %29.90 in10.0 miNW (310°)13.8 mphOvercast
4:53 AM1.0 °F-6.0 °F72 %29.93 in9.0 miNW (310°)19.6 mph24.2 mphOvercast
5:53 AM0.0 °F-8.0 °F69 %29.96 in10.0 miNW (310°)20.7 mph26.5 mphOvercast
6:53 AM-0.9 °F-9.0 °F69 %29.99 in10.0 miNW (310°)18.4 mph24.2 mphOvercast
7:53 AM-2.0 °F-9.9 °F69 %30.02 in9.0 miNW (310°)16.1 mphOvercast
8:42 AM-2.2 °F-9.4 °F71 %29.94 in8.0 miNW (310°)18.4 mph23.0 mphOvercast
8:50 AM-2.2 °F-9.4 °F71 %29.94 in9.0 miNW (310°)16.1 mph23.0 mphOvercast
8:53 AM-2.0 °F-9.9 °F69 %30.05 in9.0 miNW (310°)17.3 mphOvercast
9:53 AM-0.9 °F-11.0 °F62 %30.09 in8.0 miNW (320°)13.8 mph25.3 mph0.00 inMostly Cloudy
10:53 AM-2.0 °F-9.9 °F69 %30.12 in3.0 miNW (310°)21.9 mph0.00 inSnowLight Snow
11:00 AM-2.2 °F-9.4 °F71 %30.01 in2.0 miNW (310°)21.9 mph0.00 inSnowLight Snow
11:25 AM-0.4 °F-11.2 °F60 %30.02 in4.0 miNW (310°)21.9 mph0.00 inSnowLight Snow
11:53 AM0.0 °F-9.9 °F63 %30.13 in6.0 miNW (310°)18.4 mph0.00 inOvercast
12:53 PM1.0 °F-8.0 °F66 %30.14 in5.0 miNW (310°)21.9 mph27.6 mph0.00 inHaze
1:53 PM1.0 °F-9.0 °F63 %30.17 in9.0 miNW (310°)23.0 mphOvercast
2:28 PM1.4 °F-9.4 °F61 %30.07 in9.0 miWNW (300°)20.7 mphOvercast
2:53 PM1.0 °F-9.9 °F60 %30.19 in10.0 miNW (310°)21.9 mph26.5 mphScattered Clouds
3:53 PM0.0 °F-11.0 °F60 %30.22 in10.0 miWNW (300°)23.0 mphClear
4:53 PM-0.9 °F-11.9 °F60 %30.25 in10.0 miNW (310°)18.4 mphClear
5:53 PM-2.9 °F-14.1 °F59 %30.28 in10.0 miWNW (300°)18.4 mphClear
6:53 PM-5.1 °F-15.0 °F62 %30.30 in10.0 miWNW (300°)15.0 mph25.3 mphClear
7:53 PM-7.1 °F-16.1 °F65 %30.32 in10.0 miNW (310°)15.0 mphClear
8:53 PM-8.0 °F-18.0 °F61 %30.33 in10.0 miWNW (300°)15.0 mphClear
9:53 PM-9.0 °F-18.9 °F62 %30.35 in10.0 miWNW (300°)11.5 mphClear
10:53 PM-9.9 °F-18.9 °F65 %30.36 in10.0 miWNW (290°)13.8 mphClear
11:53 PM-11.0 °F-20.0 °F64 %30.36 in10.0 miWNW (290°)11.5 mphClear
Hourly data recorded from KSTC, located miles away from Collegeville, Minnesota







STORIES FROM OUR PARTNERS